STARLINK-1307 (45397 NORAD) Tracking and Keplerian Element Data

This shows tracking and keplerian element data for the satellite.

Feedback or suggestion? Click here.




ElementValue
Catalog45397
NameSTARLINK-1307
Epoch Orbit1832
Epoch Day193.91667824
Epoch Year2020
RAAN64.8122
Inclination52.9825
Eccentricity0.0001897
Argument of Perigee93.3866
Mean Anonmoly212.7277
Mean Motion15.05581564
Decay Rate-0.00016212
L11 45397U 20019AP 20193.91667824 -.00016212 00000-0 -10959-2 0 9998
L22 45397 52.9825 64.8122 0001897 93.3866 212.7277 15.05581564 18326

Live tracking and technical data element details for STARLINK-1307 (NORAD 45397). STARLINK-1307 can be tracked NOW for your location showing map with azimuth and elevation plus other details from your city location.

Track the satellite on the map from your city or location and see movement details for azimuth, elevation, latitude, longitude, range, height, and movement on the map or in text.







IsCatalogInMostPopularTable: catalog: 45397, numindb: 25
Update: records affected: 1



GetName: 45397 STARLINK-1307

Hit Count: updated at: Mon, 13 Jul 2020 05:21:26 GMT